| time (UTC) | temp C | wind direction | speed KPH | gust KPH | rain 1hr cm | rain 24hr cm | rain mn cm | humidity % | barometer mb |
| 20260902233059 | 15 | 0 | 1.6 | 8.0 | 0.03 | 0.79 | 0.79 | 89 | 1009.2 |
| 20260902231605 | 15 | 0 | 0.0 | 6.4 | 0.08 | 0.79 | 0.79 | 90 | 1009.0 |
| 20260902230054 | 15 | 247 | 1.6 | 14.5 | 0.13 | 0.79 | 0.79 | 90 | 1009.0 |
| 20260902224559 | 15 | 0 | 1.6 | 8.0 | 0.15 | 0.79 | 0.79 | 90 | 1009.0 |
| 20260902223106 | 15 | 267 | 0.0 | 11.3 | 0.13 | 0.76 | 0.76 | 90 | 1008.9 |
| 20260902221558 | 15 | 0 | 0.0 | 8.0 | 0.08 | 0.71 | 0.71 | 89 | 1008.7 |
| 20260902214558 | 15 | 69 | 0.0 | 8.0 | 0.03 | 0.64 | 0.64 | 89 | 1008.5 |
| 20260902213056 | 15 | 0 | 0.0 | 9.7 | 0.03 | 0.64 | 0.64 | 89 | 1008.4 |
| 20260902211558 | 15 | 0 | 0.0 | 6.4 | 0.05 | 0.64 | 0.64 | 90 | 1008.5 |
| 20260902210058 | 15 | 0 | 0.0 | 6.4 | 0.03 | 0.61 | 0.61 | 90 | 1008.3 |
| 20260902204555 | 16 | 0 | 0.0 | 4.8 | 0.03 | 0.61 | 0.61 | 90 | 1008.3 |
| 20260902203052 | 15 | 0 | 0.0 | 6.4 | 0.03 | 0.61 | 0.61 | 91 | 1008.2 |
| 20260902201600 | 15 | 0 | 0.0 | 4.8 | 0.03 | 0.58 | 0.58 | 90 | 1008.1 |
| 20260902200110 | 15 | 0 | 0.0 | 8.0 | 0.03 | 0.58 | 0.58 | 91 | 1008.0 |
| 20260902194559 | 15 | 0 | 0.0 | 8.0 | 0.03 | 0.58 | 0.58 | 91 | 1008.0 |
| 20260902193101 | 15 | 151 | 0.0 | 8.0 | 0.05 | 0.58 | 0.58 | 91 | 1008.0 |
| 20260902191558 | 14 | 0 | 0.0 | 4.8 | 0.05 | 0.56 | 0.56 | 91 | 1007.9 |
| 20260902190057 | 14 | 22 | 0.0 | 6.4 | 0.05 | 0.56 | 0.56 | 91 | 1008.0 |
| 20260902184558 | 14 | 240 | 0.0 | 4.8 | 0.05 | 0.56 | 0.56 | 91 | 1007.8 |
| 20260902183051 | 14 | 0 | 1.6 | 8.0 | 0.13 | 0.53 | 0.53 | 91 | 1008.0 |
| 20260902181600 | 14 | 0 | 1.6 | 8.0 | 0.23 | 0.51 | 0.51 | 91 | 1007.9 |
| 20260902180126 | 13 | 188 | 0.0 | 8.0 | 0.33 | 0.51 | 0.51 | 91 | 1008.0 |
| 20260902174552 | 14 | 156 | 0.0 | 4.8 | 0.38 | 0.48 | 0.48 | 91 | 1008.0 |
| 20260902173057 | 14 | 0 | 0.0 | 4.8 | 0.30 | 0.41 | 0.41 | 91 | 1008.3 |
| 20260902171558 | 14 | 0 | 0.0 | 3.2 | 0.18 | 0.28 | 0.28 | 90 | 1008.2 |
| 20260902170057 | 14 | 237 | 0.0 | 4.8 | 0.10 | 0.15 | 0.15 | 89 | 1008.0 |
| 20260902164559 | 14 | 219 | 0.0 | 11.3 | 0.10 | 0.10 | 0.10 | 87 | 1007.9 |
| 20260902163103 | 14 | 230 | 0.0 | 3.2 | 0.10 | 0.10 | 0.10 | 88 | 1007.8 |
| 20260902161559 | 15 | 0 | 0.0 | 1.6 | 0.08 | 0.08 | 0.08 | 86 | 1008.0 |
| 20260902160055 | 15 | 0 | 0.0 | 1.6 | 0.05 | 0.05 | 0.05 | 82 | 1008.1 |
| 20260902154559 | 16 | 240 | 0.0 | 3.2 | 0.00 | 0.00 | 0.00 | 76 | 1008.2 |
| 20260902153053 | 15 | 0 | 0.0 | 6.4 | 0.00 | 0.00 | 0.00 | 76 | 1008.2 |
| 20260902151552 | 15 | 0 | 0.0 | 3.2 | 0.00 | 0.00 | 0.00 | 78 | 1008.3 |
| 20260902150051 | 15 | 0 | 0.0 | 1.6 | 0.00 | 0.00 | 0.00 | 80 | 1008.3 |
| 20260902144555 | 15 | 257 | 0.0 | 0.0 | 0.00 | 0.00 | 0.00 | 81 | 1008.3 |
| 20260902143056 | 15 | 0 | 0.0 | 3.2 | 0.00 | 0.00 | 0.00 | 81 | 1008.6 |
| 20260902141554 | 15 | 0 | 0.0 | 3.2 | 0.00 | 0.00 | 0.00 | 80 | 1008.8 |
| 20260902140055 | 15 | 0 | 0.0 | 6.4 | 0.00 | 0.00 | 0.00 | 82 | 1008.9 |
| 20260902134557 | 14 | 0 | 0.0 | 0.0 | 0.00 | 0.00 | 0.00 | 84 | 1009.0 |
| 20260902133051 | 14 | 0 | 0.0 | 6.4 | 0.00 | 0.00 | 0.00 | 85 | 1009.2 |
| 20260902131553 | 13 | 0 | 0.0 | 3.2 | 0.00 | 0.00 | 0.00 | 86 | 1009.3 |
| 20260902130103 | 13 | 0 | 0.0 | 3.2 | 0.00 | 0.00 | 0.00 | 87 | 1009.4 |
| 20260902124559 | 13 | 0 | 0.0 | 3.2 | 0.00 | 0.00 | 0.00 | 87 | 1009.7 |
| 20260902123057 | 13 | 0 | 0.0 | 1.6 | 0.00 | 0.00 | 0.00 | 87 | 1009.8 |
| 20260902121559 | 13 | 0 | 0.0 | 1.6 | 0.00 | 0.00 | 0.00 | 86 | 1010.0 |
| 20260902120059 | 14 | 0 | 0.0 | 0.0 | 0.00 | 0.00 | 0.00 | 86 | 1010.3 |
| 20260902114557 | 14 | 0 | 0.0 | 1.6 | 0.00 | 0.00 | 0.00 | 86 | 1010.4 |
| 20260902113058 | 13 | 210 | 0.0 | 3.2 | 0.00 | 0.00 | 0.00 | 87 | 1010.6 |
| 20260902111554 | 13 | 0 | 0.0 | 1.6 | 0.00 | 0.00 | 0.00 | 87 | 1010.8 |
| 20260902104557 | 13 | 0 | 0.0 | 0.0 | 0.00 | 0.00 | 0.00 | 87 | 1011.1 |
| 20260902103052 | 13 | 0 | 0.0 | 0.0 | 0.00 | 0.00 | 0.00 | 86 | 1011.2 |
| 20260902101549 | 14 | 121 | 0.0 | 1.6 | 0.00 | 0.00 | 0.00 | 86 | 1011.3 |
| 20260902100109 | 14 | 0 | 0.0 | 3.2 | 0.00 | 0.00 | 0.00 | 86 | 1011.4 |
| 20260902094556 | 13 | 0 | 0.0 | 0.0 | 0.00 | 0.00 | 0.00 | 86 | 1011.5 |
| 20260902093051 | 13 | 0 | 0.0 | 0.0 | 0.00 | 0.00 | 0.00 | 87 | 1011.8 |
| 20260902091556 | 13 | 0 | 0.0 | 0.0 | 0.00 | 0.00 | 0.00 | 87 | 1011.9 |
| 20260902090055 | 13 | 0 | 0.0 | 1.6 | 0.00 | 0.00 | 0.00 | 87 | 1012.0 |
| 20260902084600 | 13 | 241 | 0.0 | 0.0 | 0.00 | 0.00 | 0.00 | 87 | 1012.1 |
| 20260902083047 | 13 | 0 | 0.0 | 0.0 | 0.00 | 0.00 | 0.00 | 87 | 1012.2 |
| 20260902081604 | 13 | 0 | 0.0 | 0.0 | 0.00 | 0.00 | 0.00 | 87 | 1012.3 |
| 20260902080054 | 13 | 0 | 0.0 | 0.0 | 0.00 | 0.00 | 0.00 | 86 | 1012.2 |
| 20260902074550 | 13 | 0 | 0.0 | 0.0 | 0.00 | 0.00 | 0.00 | 85 | 1012.3 |
| 20260902073100 | 14 | 0 | 0.0 | 0.0 | 0.00 | 0.00 | 0.00 | 84 | 1012.3 |
| 20260902071557 | 14 | 0 | 0.0 | 0.0 | 0.00 | 0.00 | 0.00 | 83 | 1012.3 |
| 20260902070058 | 15 | 0 | 0.0 | 0.0 | 0.00 | 0.00 | 0.00 | 82 | 1012.3 |
| 20260902064601 | 15 | 0 | 0.0 | 0.0 | 0.00 | 0.00 | 0.00 | 82 | 1012.3 |
| 20260902063100 | 15 | 0 | 0.0 | 0.0 | 0.00 | 0.00 | 0.00 | 82 | 1012.6 |
| 20260902061606 | 15 | 0 | 0.0 | 0.0 | 0.00 | 0.00 | 0.00 | 81 | 1012.8 |
| 20260902060107 | 16 | 0 | 0.0 | 0.0 | 0.00 | 0.00 | 0.00 | 80 | 1013.0 |
| 20260902054554 | 16 | 0 | 0.0 | 1.6 | 0.00 | 0.00 | 0.00 | 79 | 1013.1 |
| 20260902053052 | 16 | 0 | 0.0 | 0.0 | 0.00 | 0.00 | 0.00 | 79 | 1013.4 |
| 20260902051604 | 16 | 0 | 0.0 | 0.0 | 0.00 | 0.00 | 0.00 | 79 | 1013.4 |
| 20260902050110 | 16 | 0 | 0.0 | 0.0 | 0.00 | 0.00 | 0.00 | 79 | 1013.4 |
| 20260902044555 | 16 | 0 | 0.0 | 0.0 | 0.00 | 0.00 | 0.00 | 79 | 1013.4 |
| 20260902043057 | 16 | 0 | 0.0 | 0.0 | 0.00 | 0.00 | 0.00 | 77 | 1013.3 |
| 20260902041601 | 16 | 0 | 0.0 | 0.0 | 0.00 | 0.00 | 0.00 | 76 | 1013.3 |
| 20260902040059 | 17 | 0 | 0.0 | 0.0 | 0.00 | 0.00 | 0.00 | 75 | 1013.0 |
| 20260902034556 | 17 | 0 | 0.0 | 0.0 | 0.00 | 0.00 | 0.00 | 73 | 1012.8 |
| 20260902033103 | 17 | 0 | 0.0 | 0.0 | 0.00 | 0.00 | 0.00 | 73 | 1012.8 |
| 20260902031602 | 17 | 0 | 0.0 | 1.6 | 0.00 | 0.00 | 0.00 | 71 | 1012.7 |
| 20260902030054 | 18 | 0 | 0.0 | 4.8 | 0.00 | 0.00 | 0.00 | 71 | 1012.6 |
| 20260902024554 | 18 | 0 | 0.0 | 3.2 | 0.00 | 0.00 | 0.00 | 70 | 1012.7 |
| 20260902023053 | 18 | 0 | 0.0 | 3.2 | 0.00 | 0.00 | 0.00 | 70 | 1012.8 |
| 20260902021556 | 18 | 0 | 0.0 | 3.2 | 0.00 | 0.00 | 0.00 | 69 | 1012.8 |
| 20260902020058 | 18 | 21 | 0.0 | 4.8 | 0.00 | 0.00 | 0.00 | 68 | 1012.7 |
| 20260902014551 | 18 | 0 | 1.6 | 6.4 | 0.00 | 0.00 | 0.00 | 67 | 1012.7 |
| 20260902013100 | 19 | 0 | 0.0 | 6.4 | 0.00 | 0.00 | 0.00 | 66 | 1012.6 |
| 20260902011556 | 19 | 0 | 1.6 | 6.4 | 0.00 | 0.00 | 0.00 | 65 | 1012.7 |
| 20260902010104 | 19 | 0 | 0.0 | 6.4 | 0.00 | 0.00 | 0.00 | 66 | 1012.5 |
| 20260902004604 | 19 | 360 | 0.0 | 8.0 | 0.00 | 0.00 | 0.00 | 65 | 1012.4 |
| 20260902003053 | 19 | 23 | 0.0 | 8.0 | 0.00 | 0.00 | 0.00 | 65 | 1012.3 |
| 20260902001612 | 19 | 25 | 0.0 | 4.8 | 0.00 | 0.00 | 0.00 | 65 | 1012.4 |
| 20260902000055 | 19 | 0 | 1.6 | 8.0 | 0.00 | 0.00 | 0.00 | 65 | 1012.2 |
| 20260901234551 | 20 | 78 | 1.6 | 8.0 | 0.00 | 0.00 | 0.00 | 64 | 1012.1 |